Regional Weather Roundup
Issued by NWS

Home | Current Version | Previous Version | Graphics & Text | Print | Product List | Glossary On
Versions: 1 2 3 4 5 6 7 8 9 10 11 12 13 14 15 16 17 18 19 20 21 22 23 24 25 26 27 28 29 30 31 32 33 34 35 36 37 38 39 40 41 42 43 44 45 46 47 48 49 50
000
ASUS45 KBOU 292307
RWRCO

WEATHER ROUNDUP FOR COLORADO
NATIONAL WEATHER SERVICE DENVER/BOULDER CO
500 PM MDT TUE JUL 29 2014

NOTE: "FAIR" INDICATES FEW OR NO CLOUDS BELOW 12000 FEET WITH NO
SIGNIFICANT WEATHER AND/OR OBSTRUCTIONS TO VISIBILITY.

COZ001>005-013-030-031-300000-
...NORTHWEST COLORADO...

CITY           SKY/WX    TMP DP  RH WIND       PRES   REMARKS
CRAIG          CLOUDY    65  58  78 NE8       30.27F
HAYDEN         CLOUDY    64  52  63 CALM      30.29F
MEEKER         PTSUNNY   72  53  51 S3        30.27F
MOUNT WERNER   NOT AVBL
STEAMBOAT SPGS CLOUDY    63  53  71 CALM      30.32S
WALDEN         CLOUDY    55  52  88 S3        30.38F
$$

COZ006>008-011-300000-
...WEST CENTRAL VALLEYS...

CITY           SKY/WX    TMP DP  RH WIND       PRES   REMARKS
GRAND JUNCTION PTSUNNY   80  58  46 SE8       30.14F
MONTROSE       CLOUDY    76  56  49 SE3       30.25F
EAGLE          PTSUNNY   70  54  56 CALM      30.30F
RIFLE          CLOUDY    75  56  51 N5        30.22F
DELTA          CLOUDY    79  56  46 S6        30.19F
NUCLA          CLOUDY    70  57  64 S5        30.29F
$$

COZ017>023-064>068-300000-
...SOUTHWEST COLORADO...

CITY           SKY/WX    TMP DP  RH WIND       PRES   REMARKS
DURANGO        MOSUNNY   82  49  31 W21G28    30.23F
CORTEZ         SUNNY     78  52  40 N16G24    30.22S
PAGOSA SPRINGS PTSUNNY   74  48  40 SW5       30.31F THUNDER
TELLURIDE      CLOUDY    57  54  88 CALM      30.49F
WOLF CREEK PAS NOT AVBL
$$

COZ009-010-012-014-032>034-037-058>063-300000-
...CENTRAL COLORADO...

CITY           SKY/WX    TMP DP  RH WIND       PRES   REMARKS
ASPEN          PTSUNNY   62  54  74 SE8       30.37F
BUENA VISTA    PTSUNNY   73  46  38 NW10      30.32F
COPPER MTN     LGT RAIN  52  46  82 W15       30.64S VSB<1/4
BERTHOUD PASS  RAIN      41  28  60 N6        30.68S VSB<1/4
COTTONWOOD PAS PTSUNNY   68  46  45 CALM      30.46F
GUNNISON       PTSUNNY   70  48  46 W12       30.35S
KREMMLING      DRIZZLE   63  52  67 CALM      30.35F
LEADVILLE      LGT RAIN  56  47  71 NW13      30.48S
MONARCH PASS   PTSUNNY   48  45  87 W23       30.72F FOG
SALIDA         PTSUNNY   71  51  49 CALM      30.36F
SUNLIGHT       PTSUNNY   55  52  88 CALM      30.59S
WILKERSON PASS CLOUDY    55  45  67 CALM      30.59S
$$

COZ069>075-300000-
...SAN LUIS VALLEY/SANGRE DE CRISTO MOUNTAINS...

CITY           SKY/WX    TMP DP  RH WIND       PRES   REMARKS
ALAMOSA        LGT RAIN  65  54  67 W12       30.31F
LA VETA PASS   CLOUDY    61  46  59 SW7       30.50S
SAGUACHE       CLOUDY    64  55  72 E3        30.34F
$$

COZ035-036-038>040-300000-
...NORTHERN COLORADO FRONT RANGE...

CITY           SKY/WX    TMP DP  RH WIND       PRES   REMARKS
DENVER INTL AP RAIN      65  58  78 N6        30.23R
DMNS CITY PARK   N/A     66  62  86 N3        30.21R
AURORA         CLOUDY    64  59  86 E2        30.24R
FRONT RANGE AP LGT RAIN  70  57  64 SE10      30.22
ERIE MUNI ARPT HVY RAIN  65  60  84 N10       30.23R
BOULDER MUN AP LGT RAIN  63  61  94 N8        30.24R
CENTENNIAL     LGT RAIN  63  59  87 CALM      30.23R
BROOMFIELD     NOT AVBL
FORT COLLINS   CLOUDY    63  59  88 N7        30.26S
LONGMONT       RAIN      66  61  84 N10       30.26R
$$

COZ041-046-047-076>085-087-088-300000-
...PIKES PEAK/PALMER DIVIDE AND SOUTHERN FOOTHILLS...

CITY           SKY/WX    TMP DP  RH WIND       PRES   REMARKS
COLO. SPRINGS  TSTM      65  61  87 NE14      30.23R
A. F. ACADEMY  LGT RAIN  66  59  77 E6        30.24S
ELLICOTT       CLOUDY    74  57  55 SE12G26   30.19R THUNDER
FALCON         TSTM      60  59  94 NE6G12    30.28S
FORT CARSON    TSTM      64  61  88 N7        30.20R
LIMON          CLOUDY    64  59  83 SE9       30.20R
MONUMENT HILL  RAIN      59  55  88 SE10      30.28F
TRINIDAD       LGT RAIN  70  59  68 W15       30.19R
$$

COZ042>045-048>051-090-091-300000-
...NORTHEAST COLORADO...

CITY           SKY/WX    TMP DP  RH WIND       PRES   REMARKS
GREELEY ARPT   CLOUDY    63  57  82 NW9       30.24R
AKRON          CLOUDY    76  56  49 E17G30    30.14R THUNDER
BURLINGTON     CLOUDY    79  60  52 SE12      30.12S
WRAY             N/A     87  52  30 E17G24    30.08F
STERLING       CLOUDY    84  59  42 E12       30.10R
HOLYOKE        MOSUNNY   82  61  47 E17G25    30.12S
FORT MORGAN    CLOUDY    72  56  58 NW5       30.18R
$$

COZ086-089-092>099-300000-
...SOUTHEAST COLORADO...

CITY           SKY/WX    TMP DP  RH WIND       PRES   REMARKS
PUEBLO         CLOUDY    74  57  55 S20G28    30.10R
LA JUNTA       PTSUNNY   82  61  48 S17       30.06S
LAMAR          PTSUNNY   84  62  47 S22G33    30.02S
SPRINGFIELD      N/A     71  64  78 SW5       30.11F
$$



USA.gov is the U.S. government's official web portal to all federal, state and local government web resources and services.